User: anonymous   Login
Location: Unspecified
(0.0000°N, 0.0000°E)
Time: 16:43:50
(UTC+00:00)
Language:

PAYLOAD B - Orbit

View from above orbital plane
View from above orbital plane
View from above satellite
View from above satellite

Ground track
Ground track

The orbit data is extracted from the following two-line orbital elements,

1 27056U 01058B   19016.89255008  .00000022  00000-0  65555-4 0  9992
2 27056  82.5372 151.7837 0005384 210.8319 149.2457 12.60510040784724
Epoch (UTC): 16 January 2019 21:25:16
Eccentricity: 0.0005384
inclination: 82.5372°
perigee height: 1416 km
apogee height: 1425 km
right ascension of ascending node: 151.7837°
argument of perigee: 210.8319°
revolutions per day: 12.60510040
mean anomaly at epoch: 149.2457°
orbit number at epoch: 78472

The dashed part of the orbit path shows where the satellite is in the earth's shadow,  

DLR